User: anonymous   Login
Location: Taupo
(38.6830°S, 176.0830°E)
Time: 02:46:32
(UTC+13:00)
Language:

Cosmos 1763 Rocket - Orbit

View from above orbital plane
View from above orbital plane
View from above satellite
View from above satellite

Ground track
Ground track

The orbit data is extracted from the following two-line orbital elements,

1 16864U 86052B   19079.75316684 +.00000030 +00000-0 +17688-4 0  9999
2 16864 074.0311 346.8751 0034073 284.1448 075.5922 14.40535695715044
Epoch (UTC): 20 March 2019 18:04:33
Eccentricity: 0.0034073
inclination: 74.0311°
perigee height: 732 km
apogee height: 781 km
right ascension of ascending node: 346.8751°
argument of perigee: 284.1448°
revolutions per day: 14.40535695
mean anomaly at epoch: 75.5922°
orbit number at epoch: 71504

The dashed part of the orbit path shows where the satellite is in the earth's shadow,  

DLR